Theta_e
303 303 304 304 305 305 305 305 305 304 304 301 299 302 296 294 290 302 306 307 303 295 288 290 289 287 290 294 292 294 292 291 292 290 292 290 293 291 290 291 291 293 292 292 292 292 290 291 290 292 293 294 297 299 299 300 300 299 297 299 300 305 294 291 291 295 297 299 300 301 301 300 297 298 299 297 294 295 295 293 296 292 293 291 291 287 294
302 302 303 304 304 305 305 305 305 305 304 302 300 297 295 295 295 297 305 306 302 291 283 284 286 288 292 291 291 294 292 292 291 290 292 291 291 290 291 293 295 292 295 294 291 294 288 293 293 292 295 294 300 299 299 301 299 298 297 295 301 292 296 293 288 288 290 293 296 295 299 299 296 295 297 298 298 298 299 298 300 291 293 293 290 286 295
302 302 303 303 304 305 305 305 305 305 305 304 301 294 296 295 298 298 301 304 299 287 291 287 286 287 287 288 287 289 292 294 293 292 291 294 293 292 291 294 295 294 296 293 294 295 293 290 294 295 296 296 300 299 300 301 300 300 302 306 302 295 294 292 286 283 280 280 282 284 288 292 296 297 297 298 297 297 296 291 293 289 293 294 291 290 302
302 302 302 302 303 304 305 305 305 304 304 304 301 298 294 291 284 292 296 299 297 295 296 291 287 285 286 285 288 291 287 293 295 295 293 295 295 294 295 296 297 294 294 292 291 292 295 292 291 293 293 296 298 299 300 300 300 303 309 306 302 297 298 296 293 290 287 289 292 296 296 295 291 294 296 296 298 299 299 297 292 289 293 292 295 296 298
302 301 301 302 303 304 304 304 304 304 304 304 301 299 296 295 287 287 285 294 293 289 292 288 288 285 289 284 287 284 286 290 292 297 291 295 295 295 295 295 293 293 293 291 291 293 293 295 294 294 294 297 297 300 300 300 302 312 305 308 301 297 294 296 297 295 295 296 296 297 296 293 294 295 295 296 296 298 298 292 291 297 294 288 296 300 302
301 301 301 302 303 303 304 304 304 304 303 304 303 295 298 288 292 292 293 285 284 285 287 289 286 288 287 285 288 285 286 288 287 294 296 297 298 293 295 295 295 294 292 293 289 291 292 293 290 295 295 295 297 296 299 298 305 303 300 303 300 296 290 296 297 295 297 296 297 297 296 296 295 296 296 295 296 297 297 298 297 299 291 290 299 302 300
301 301 302 302 303 303 304 304 304 303 302 303 303 293 297 296 294 294 297 286 289 287 288 288 286 285 286 286 286 285 286 287 292 293 294 292 295 296 288 292 294 295 295 294 291 292 289 288 294 294 295 295 295 294 297 300 302 301 300 300 304 298 292 296 297 296 297 297 297 298 296 296 295 295 296 296 296 297 297 299 299 298 298 299 299 301 301
301 301 302 302 302 302 303 303 304 303 302 303 299 296 291 289 287 287 293 291 289 290 289 286 286 285 288 285 287 285 286 287 294 297 295 290 294 297 293 294 295 295 295 295 292 294 295 295 291 297 296 295 296 295 296 295 299 300 298 299 302 296 291 296 297 294 294 298 298 297 297 296 294 296 297 297 297 296 297 298 301 301 299 300 300 300 299
301 301 302 302 302 303 303 303 303 303 302 299 295 296 298 297 298 296 288 285 289 293 293 291 286 285 286 285 287 286 288 288 294 295 299 297 294 298 295 297 296 296 295 297 298 300 300 297 299 298 298 293 297 295 296 299 296 297 297 299 300 298 292 299 297 290 292 296 297 297 298 296 295 295 296 297 296 295 297 295 300 298 296 300 300 297 297
301 301 302 302 302 302 302 303 303 302 303 298 296 293 299 299 300 298 294 285 291 289 295 295 294 286 288 286 288 288 292 294 297 291 298 300 300 300 299 299 298 296 295 297 300 302 304 303 306 301 301 301 300 300 300 300 297 296 297 300 296 297 294 292 292 289 289 296 296 297 297 295 291 291 296 297 298 298 300 299 301 302 302 297 293 295 304
301 301 301 302 302 302 302 303 303 303 301 296 294 294 296 295 293 294 294 286 289 293 294 293 292 295 297 297 293 294 295 298 299 292 291 298 299 303 301 299 297 296 295 299 306 307 307 307 306 305 301 301 300 301 301 302 300 299 298 298 297 298 296 293 296 288 289 295 296 296 292 284 286 301 304 301 299 298 297 297 300 303 303 300 302 303 310
300 301 301 301 302 302 302 302 302 303 302 300 299 296 299 300 298 295 290 285 287 294 294 291 293 296 295 298 297 295 295 296 297 300 296 298 301 302 301 301 300 291 305 309 309 308 307 308 305 302 301 301 300 300 300 299 299 301 301 299 296 296 295 293 295 290 289 293 294 288 284 286 304 306 308 308 303 301 300 301 300 302 302 304 301 303 306
300 301 301 301 301 301 301 302 303 303 303 302 300 296 300 303 298 294 292 288 286 291 290 292 297 298 298 298 297 296 298 300 300 300 301 300 301 302 302 299 300 302 307 307 307 305 301 296 297 298 297 299 299 299 299 299 298 300 300 300 299 293 294 293 291 292 293 290 289 282 285 299 303 307 307 310 306 304 302 300 302 302 302 302 301 303 305
299 300 301 301 301 301 301 302 302 302 302 302 299 300 302 302 297 294 292 287 286 292 294 294 296 296 297 297 298 298 300 298 301 301 298 301 299 301 303 305 307 308 309 310 306 302 296 296 290 292 292 295 295 293 297 298 299 298 299 300 301 299 297 294 290 295 287 289 289 288 296 297 301 300 303 303 300 301 298 291 297 305 304 303 302 303 304
300 300 300 301 301 301 301 301 302 302 302 302 301 301 301 302 302 297 296 293 286 290 294 290 293 295 296 297 299 298 297 299 297 296 300 303 302 304 304 306 308 309 310 305 299 299 294 293 288 287 289 288 284 287 295 293 298 300 301 301 300 300 294 296 291 289 293 289 287 288 287 285 292 302 308 310 310 307 308 301 297 305 304 305 304 303 305
299 300 300 300 301 301 301 301 301 302 302 302 301 300 302 304 304 302 298 293 289 285 294 297 298 297 297 298 299 297 294 295 297 298 298 299 301 304 306 308 310 310 306 304 301 296 293 290 287 287 285 287 292 290 288 294 293 299 301 301 300 300 300 298 292 289 290 289 286 286 284 287 300 304 307 310 312 311 311 299 293 304 306 306 305 304 305
300 300 300 300 301 300 301 301 301 302 302 302 299 300 300 305 304 301 297 295 293 288 297 299 301 300 299 296 298 297 298 293 299 292 291 295 298 299 305 307 310 310 307 305 298 294 292 290 293 291 292 294 289 287 293 292 291 292 297 298 298 296 294 292 291 289 290 288 287 286 288 290 300 305 307 310 311 308 302 288 289 304 306 307 307 305 307
300 299 299 300 300 301 300 301 301 302 301 302 300 299 300 307 307 304 299 295 291 292 299 303 299 296 296 297 296 300 301 300 299 300 297 299 300 301 302 303 301 306 309 298 298 292 290 290 288 288 288 295 296 295 286 292 289 289 290 292 292 292 291 292 289 290 290 288 289 290 290 300 307 307 309 310 313 305 290 286 294 311 314 313 309 307 309
299 299 299 299 300 300 300 301 301 301 301 302 301 300 302 305 306 306 300 296 294 290 299 303 303 302 304 305 302 302 301 300 300 295 294 295 299 304 303 303 306 297 304 297 299 293 290 290 296 296 290 292 296 288 295 290 289 294 294 290 291 291 291 291 292 289 289 290 287 288 294 302 308 309 310 311 305 290 290 304 313 313 314 315 315 309 312
299 299 299 299 299 300 300 301 301 301 301 301 301 297 300 304 306 306 300 294 296 293 297 300 303 301 303 300 298 297 298 300 300 297 296 293 303 304 300 295 303 304 299 302 292 295 292 289 292 297 293 292 295 300 292 294 297 294 293 296 291 291 288 288 288 290 291 290 287 287 286 296 309 309 307 309 295 295 308 311 313 315 315 316 315 316 313
299 299 298 299 299 300 300 301 301 301 301 301 300 298 298 305 308 308 307 301 296 291 295 305 304 301 303 302 303 303 301 298 299 297 299 300 304 301 289 289 298 299 294 296 290 292 294 292 297 294 298 295 296 298 289 291 294 300 297 295 294 298 289 289 290 295 287 287 286 287 298 303 310 307 296 304 308 312 314 312 310 314 315 315 316 315 316
298 298 298 299 299 300 300 300 301 301 302 301 301 300 297 303 306 308 307 305 297 294 297 302 304 302 305 307 307 308 306 305 305 306 301 298 304 303 300 304 302 303 304 304 298 294 300 297 299 295 292 294 296 293 295 290 288 295 303 298 289 298 294 298 291 296 292 292 297 304 310 310 312 313 312 313 315 316 315 314 313 312 314 317 316 316 318
298 298 298 299 299 300 300 300 300 301 301 301 300 299 296 300 302 307 306 300 303 304 306 305 306 307 309 309 311 311 311 311 310 309 308 302 298 305 303 301 301 307 306 306 300 299 298 301 291 299 296 296 293 293 295 295 291 296 293 300 303 303 305 306 302 300 306 307 309 311 309 311 312 314 314 312 313 315 317 315 314 315 317 317 316 317 317
298 298 298 298 299 299 300 300 300 300 301 301 300 299 298 301 302 303 303 304 300 296 301 306 303 297 302 303 307 313 311 311 311 312 313 310 300 299 305 306 307 307 306 307 309 304 300 298 299 303 292 298 301 293 289 290 289 299 296 294 300 303 304 302 298 301 297 292 308 307 308 310 312 312 313 315 316 315 316 315 315 316 317 317 318 318 317
298 298 298 299 299 299 300 300 300 300 301 301 301 301 302 302 306 307 302 293 294 294 291 296 300 305 307 309 310 309 309 311 313 313 313 312 308 303 301 306 312 307 305 309 312 307 302 296 300 298 290 301 303 292 299 293 294 301 292 296 297 298 306 300 299 299 294 297 304 307 309 310 312 312 311 311 313 314 315 316 316 317 318 318 318 318 317
297 298 298 298 299 299 299 300 300 300 301 301 301 299 298 299 305 308 307 305 303 301 292 292 300 308 308 307 305 306 310 310 310 311 311 311 310 311 309 311 312 316 313 313 311 302 298 297 299 298 296 295 306 296 296 300 299 301 298 298 304 303 304 293 299 298 300 304 305 306 308 309 310 312 313 314 314 314 314 316 316 317 315 316 317 317 317
297 298 298 298 299 299 299 300 300 300 301 301 300 301 301 303 307 307 305 303 298 294 297 293 299 303 307 305 307 309 309 309 310 310 310 310 308 310 311 310 308 309 310 307 307 301 300 298 298 298 303 298 305 304 303 301 301 294 296 301 305 302 297 302 298 295 294 295 299 304 296 295 306 309 312 313 314 315 313 314 314 315 314 315 314 316 317
297 298 298 298 299 299 300 300 300 300 300 301 301 301 304 306 309 311 311 308 301 292 292 294 296 301 307 305 309 308 307 308 309 309 309 309 309 311 311 308 308 306 307 304 298 299 298 297 297 298 298 305 302 296 305 304 303 300 299 301 305 303 302 302 296 295 295 302 306 309 308 308 309 310 312 313 314 314 314 313 313 313 315 316 315 313 314
297 298 298 298 299 299 300 300 300 300 300 300 301 302 305 308 311 313 311 310 307 301 297 297 301 301 295 300 306 306 307 309 309 308 308 307 307 308 308 307 306 306 307 303 300 300 299 299 298 300 300 305 305 297 300 292 293 292 298 303 306 307 308 306 305 306 306 308 307 309 308 306 308 311 312 312 313 313 313 312 313 313 314 315 315 315 315
297 298 298 298 299 299 299 300 300 300 300 300 301 302 301 305 312 311 311 311 308 304 295 293 291 295 307 307 303 304 304 307 307 307 307 306 306 306 305 306 306 306 306 301 300 296 299 300 298 307 307 310 302 298 294 297 294 297 304 306 306 308 307 309 309 306 304 309 310 312 310 310 310 311 310 311 312 313 312 312 312 313 314 314 314 314 315
298 298 298 298 299 299 300 300 300 300 300 300 300 296 296 293 305 311 308 310 310 304 297 297 294 300 298 306 305 301 303 303 305 304 304 305 306 306 306 307 307 305 300 300 300 299 299 297 298 302 307 304 300 298 297 297 293 297 302 304 305 306 306 307 309 309 309 309 309 310 311 309 311 310 310 311 312 312 312 312 312 311 311 312 314 314 314
298 298 298 299 299 299 299 300 300 300 300 299 298 299 302 304 307 307 306 307 309 304 297 294 293 295 295 298 303 304 303 305 305 305 306 306 305 306 307 305 303 304 299 298 298 299 297 298 296 302 302 304 302 299 300 298 293 296 304 304 306 306 307 307 308 308 309 311 310 308 306 307 309 308 306 309 310 311 311 311 311 312 309 311 312 314 314
298 298 298 299 299 299 300 300 300 300 300 301 303 302 302 302 302 303 305 310 308 303 305 297 291 293 292 297 303 303 303 304 303 304 303 305 303 304 301 305 306 304 304 298 297 295 301 298 295 296 301 307 296 297 298 293 298 303 304 304 305 306 306 307 308 308 308 309 309 304 303 305 307 309 310 310 309 309 309 309 310 311 311 311 310 310 312
298 298 299 299 299 300 300 300 301 301 302 301 300 307 311 306 307 303 310 310 306 306 302 296 291 292 292 303 298 302 303 298 299 300 294 301 304 303 299 302 302 296 298 297 298 297 297 296 296 295 299 294 298 295 292 298 303 303 304 305 306 306 307 306 306 305 306 307 308 308 308 308 309 309 308 308 308 310 309 309 309 308 309 310 309 311 311
298 298 299 299 300 300 300 301 301 301 302 304 307 312 309 303 304 307 307 306 299 296 296 296 296 292 292 293 291 297 304 300 296 298 294 298 305 300 302 296 297 294 295 304 296 295 295 295 300 294 293 299 294 292 293 300 301 303 303 304 306 306 305 304 304 305 306 307 307 307 308 307 306 306 305 306 306 307 307 307 308 308 307 308 309 309 310
298 298 299 300 300 301 301 303 303 302 303 305 308 307 303 306 305 309 310 310 305 298 294 292 294 293 293 288 289 294 303 300 302 301 298 295 299 301 300 298 292 294 302 297 293 300 292 300 296 292 295 291 291 295 298 302 301 303 303 303 306 306 305 304 304 305 305 305 305 306 305 306 305 304 305 305 305 306 306 306 307 307 306 306 306 307 308
298 299 300 300 301 303 301 299 306 307 305 305 305 304 302 304 311 311 309 306 308 308 299 293 292 294 295 293 295 295 298 291 298 297 297 293 291 295 295 294 291 294 294 293 293 292 295 302 296 291 292 290 292 299 300 302 302 303 302 304 305 306 306 305 306 306 305 305 304 305 305 304 304 304 303 303 303 304 304 304 304 304 303 303 305 305 306
299 300 299 300 301 295 296 300 306 306 305 304 303 306 307 304 300 300 300 298 304 303 298 302 294 298 301 297 292 300 297 295 300 293 292 295 292 291 293 292 292 294 288 290 292 301 296 293 292 291 290 298 299 301 303 303 304 304 304 304 305 306 305 305 306 305 303 302 302 302 302 303 302 303 303 303 303 303 303 304 304 304 304 304 304 305 305
298 300 302 303 299 294 296 303 308 304 305 307 308 300 296 300 297 292 294 298 298 295 300 299 295 300 298 296 297 304 297 292 293 296 290 296 292 288 292 288 290 292 289 289 292 302 291 291 292 292 292 297 296 297 302 305 304 305 305 305 306 306 305 305 305 305 303 302 302 302 303 301 301 302 303 303 304 304 304 304 304 305 304 304 304 305 305
300 296 294 295 295 298 304 307 304 304 307 299 302 297 291 296 293 289 294 292 292 293 298 293 299 299 299 296 295 294 302 296 291 291 292 292 297 290 291 291 292 289 285 287 290 299 291 286 289 290 289 295 296 301 301 302 303 304 305 305 306 306 305 305 304 305 305 304 304 304 304 304 304 304 303 303 303 303 304 304 304 304 304 302 302 304 304
296 295 295 292 296 299 301 303 305 305 299 295 294 293 291 289 293 293 292 290 289 291 298 297 300 298 299 300 299 294 301 303 302 300 295 289 297 297 290 286 291 288 286 285 291 293 291 289 289 289 289 295 297 300 302 301 303 302 305 305 306 306 305 305 305 304 304 304 304 304 304 305 304 304 304 304 304 304 304 304 303 303 303 303 303 303 304
295 293 296 298 298 300 301 303 299 295 295 296 290 287 290 290 292 292 292 287 288 292 296 297 292 296 296 299 298 300 297 302 301 294 292 289 292 290 288 290 290 286 283 289 294 292 290 286 287 288 293 297 299 301 301 302 303 303 304 305 305 305 305 305 304 304 305 304 304 304 304 305 304 304 304 305 305 304 304 303 303 304 303 303 303 303 303
298 299 299 297 297 296 297 292 295 294 288 287 286 284 289 287 288 288 289 292 297 294 295 301 300 301 302 302 299 301 297 303 295 293 291 289 293 292 289 287 287 283 287 294 291 288 286 286 287 291 297 298 299 299 301 303 303 304 303 305 305 305 304 304 303 304 304 304 304 304 303 304 304 304 305 305 305 304 304 304 303 304 304 304 303 303 303
298 299 296 295 292 292 293 284 294 290 287 288 285 281 285 285 288 290 287 290 293 292 298 295 296 295 292 301 296 295 297 298 296 294 292 293 291 287 286 285 286 289 295 290 288 285 286 288 290 295 297 299 301 300 301 303 304 304 303 304 305 304 304 304 304 303 303 304 305 304 303 304 304 304 305 305 305 304 304 304 304 305 304 304 303 302 302
292 291 291 290 288 292 289 282 293 288 283 286 288 288 287 285 287 290 290 294 297 293 297 297 297 297 294 300 297 298 295 292 294 291 287 290 288 289 287 286 289 291 288 286 288 288 288 288 295 296 297 297 298 300 302 304 304 303 302 303 303 303 303 303 303 303 303 303 303 303 303 303 303 303 303 304 304 305 305 304 304 304 304 303 302 302 302
290 289 289 285 282 288 287 285 287 285 289 291 289 291 291 292 293 293 298 299 297 297 295 297 297 297 294 298 292 292 295 294 291 290 291 291 287 285 290 293 292 287 286 287 285 285 287 293 295 296 298 299 299 301 302 304 305 305 302 301 302 303 303 303 303 302 303 303 303 303 302 302 302 302 302 303 303 304 305 305 305 304 304 303 302 302 302
290 291 291 290 285 288 290 285 287 289 292 293 294 294 293 295 298 299 299 299 297 299 298 300 298 298 294 294 294 294 294 294 289 292 292 287 286 288 292 288 284 286 284 283 285 287 289 294 297 298 299 300 301 301 302 304 304 304 303 303 303 302 303 302 302 302 302 303 303 303 302 302 302 303 303 302 303 304 303 305 305 305 304 303 303 303 303
285 290 291 284 283 287 285 288 294 295 296 296 297 298 298 299 297 295 299 300 300 300 298 297 295 296 294 298 296 291 293 293 289 290 291 289 290 287 285 285 285 287 287 286 286 290 294 296 298 299 301 302 302 301 302 303 304 303 303 303 303 302 302 302 302 302 302 302 303 303 303 303 303 303 302 302 303 303 304 304 305 305 305 304 303 303 303
291 288 286 286 288 289 289 293 293 291 294 296 296 297 296 296 295 297 300 301 299 298 299 298 294 294 291 294 291 291 289 292 287 286 289 288 285 281 283 282 283 283 287 290 292 294 296 298 300 301 302 302 302 304 304 304 302 303 303 303 303 303 303 302 302 302 302 303 304 303 303 302 302 303 302 303 302 302 304 304 305 305 305 304 304 303 303
287 287 289 288 288 290 293 294 292 290 294 295 295 294 295 294 294 298 301 299 300 298 300 298 296 292 291 291 288 289 289 292 289 290 287 285 285 286 285 282 284 285 287 294 295 297 299 300 302 301 302 302 302 303 303 303 301 303 303 304 304 303 303 302 302 302 302 303 304 304 304 303 302 302 302 302 303 303 304 304 304 304 304 304 304 304 302
289 288 289 294 288 288 291 286 287 288 290 292 293 294 295 294 295 296 300 299 299 295 294 291 292 290 289 288 287 285 286 292 290 288 287 286 289 287 285 284 286 291 294 297 298 299 300 301 301 301 303 302 303 304 304 303 304 303 303 304 303 303 303 303 303 302 302 303 303 299 303 303 304 304 304 304 303 303 302 302 303 304 304 304 304 304 303
286 284 284 288 291 291 292 293 293 292 293 295 295 296 297 294 297 298 301 298 297 293 291 293 291 289 287 285 287 290 292 290 287 288 286 289 291 287 287 288 293 295 296 297 298 299 300 302 302 301 302 301 303 305 304 303 304 303 303 304 303 303 302 302 302 302 302 302 303 303 304 304 305 305 304 304 303 302 301 301 302 303 303 303 303 304 303
Wind_Speed
23 23 23 24 25 25 25 24 23 22 21 14 11 10 8 6 6 4 6 6 5 5 8 10 8 8 8 12 14 11 10 9 7 9 6 8 5 6 8 9 8 11 11 12 12 14 10 16 13 11 15 14 16 19 28 21 20 16 12 15 13 3 5 10 12 13 13 14 16 18 17 16 16 15 12 11 14 14 8 7 5 6 8 8 6 6 1
23 23 23 24 24 25 26 25 24 23 18 13 11 8 7 7 9 3 5 6 4 6 9 8 7 7 9 10 12 11 11 11 10 9 9 5 2 2 4 8 11 10 10 10 11 14 7 16 13 11 15 12 18 25 27 26 19 18 8 8 10 5 6 10 11 11 13 14 14 16 18 14 12 12 12 12 13 18 11 10 7 5 10 11 7 8 3
21 23 23 23 24 24 24 25 25 24 20 15 9 6 6 8 6 5 1 4 5 7 4 7 9 10 12 13 15 14 9 5 8 9 9 8 9 4 6 7 8 9 9 11 11 14 10 10 9 11 13 11 18 24 24 23 15 15 14 10 12 6 8 9 10 12 14 15 17 19 18 17 11 14 16 16 17 17 13 9 9 6 7 15 6 1 6
22 22 22 23 24 25 24 24 23 22 19 18 9 5 6 3 5 1 3 3 4 7 8 9 8 9 9 11 10 9 8 7 7 8 10 11 9 8 11 13 10 10 8 13 13 13 11 6 8 11 10 10 14 19 24 22 19 17 13 12 12 5 9 11 11 12 11 12 11 12 13 13 14 17 17 19 17 13 11 8 6 7 6 8 11 4 7
22 21 22 22 24 24 24 24 23 23 23 19 9 5 4 4 3 3 4 2 7 8 5 6 4 4 3 6 3 4 4 9 8 6 5 6 8 8 9 5 6 5 10 11 9 8 11 8 11 12 12 12 12 26 20 21 16 13 10 9 9 7 8 13 14 14 13 14 13 15 18 16 16 17 18 17 18 14 14 8 7 9 5 6 7 5 7
22 21 21 22 23 23 25 25 24 25 25 28 7 5 2 4 1 2 2 4 4 4 4 6 5 8 3 4 2 6 8 8 4 2 7 6 4 4 3 6 11 9 7 7 5 11 10 10 8 14 13 12 16 16 18 17 11 17 12 12 6 6 4 9 11 13 13 17 17 17 17 17 16 15 15 17 18 17 13 9 13 11 5 4 8 10 9
21 21 21 22 21 21 24 24 23 24 27 24 6 5 2 3 5 5 2 4 4 6 9 10 12 12 7 4 4 6 7 7 6 3 2 4 4 5 3 5 10 9 9 5 4 10 8 7 11 8 11 13 17 15 20 16 12 15 13 11 4 6 7 11 12 11 12 16 17 13 14 14 17 16 15 16 17 15 13 11 14 13 8 9 6 4 8
21 21 21 21 22 22 23 23 22 22 26 17 7 5 5 5 6 4 5 7 14 15 9 4 5 6 5 4 4 3 2 4 6 4 3 3 5 6 9 8 10 8 9 8 4 7 6 11 6 10 12 13 10 10 9 9 14 15 13 8 7 6 4 10 10 8 6 4 3 10 16 14 15 16 16 16 14 16 16 12 8 8 10 8 8 6 6
21 22 22 21 22 22 22 22 21 21 22 8 7 5 4 5 5 6 10 12 9 9 9 6 5 2 1 3 3 2 4 6 5 5 4 5 1 3 6 8 5 6 4 8 7 10 15 3 7 10 12 11 13 9 10 16 15 18 11 7 7 7 3 7 7 3 5 7 5 9 10 16 15 14 15 15 16 15 14 11 8 10 10 9 7 5 2
21 22 22 22 22 23 23 22 21 20 20 7 7 5 7 7 6 7 7 7 9 10 9 11 5 2 5 4 2 4 5 8 7 2 2 6 6 4 3 8 7 6 6 3 7 12 11 14 11 7 11 11 12 11 12 15 15 10 9 7 7 7 5 4 4 3 3 8 4 12 13 14 14 13 16 16 13 11 9 12 12 10 8 5 2 6 6
21 23 22 22 22 22 21 21 20 20 15 11 8 7 9 8 9 9 5 8 8 9 10 9 10 6 7 5 5 8 7 2 4 3 1 3 5 5 4 7 4 4 7 0 8 11 11 11 13 8 11 14 13 12 13 15 15 14 10 7 6 8 6 4 9 4 3 6 6 5 3 8 6 1 6 12 10 13 11 11 9 8 8 6 6 4 9
20 21 22 22 21 21 20 21 20 20 15 10 9 8 7 8 9 7 5 7 9 11 11 10 13 12 15 10 5 3 2 4 4 6 3 2 1 4 2 3 4 2 2 5 7 8 12 12 13 10 12 14 15 17 17 15 15 12 11 9 9 9 5 4 9 4 5 6 3 2 2 3 6 5 10 4 13 13 11 8 12 10 12 10 9 8 8
20 20 20 20 20 21 21 20 20 20 18 12 10 9 8 8 8 8 8 7 8 12 11 14 16 15 16 16 8 4 2 6 7 5 7 4 2 4 4 1 2 2 1 5 3 8 7 5 8 11 12 13 12 13 16 16 15 15 11 12 7 4 5 3 4 4 6 5 4 3 4 4 5 7 5 7 7 6 11 10 11 13 13 13 12 7 8
21 21 22 21 21 21 21 21 21 20 20 15 10 9 8 8 8 8 7 5 10 11 13 12 14 19 20 17 12 9 7 8 7 6 6 3 8 1 5 7 4 2 2 1 3 6 4 4 4 10 12 10 10 10 12 13 14 17 17 15 12 11 8 3 4 5 6 6 6 3 3 5 2 4 2 2 4 4 4 3 11 10 10 12 11 12 11
19 19 20 20 20 20 20 20 21 21 21 19 10 8 7 7 6 6 6 5 8 13 11 8 13 17 19 15 14 9 8 5 8 5 7 5 7 2 1 1 1 3 2 3 4 6 5 3 4 6 9 9 8 9 14 11 13 11 9 9 10 13 10 5 5 4 5 7 7 5 4 4 6 1 6 6 7 3 5 5 5 9 12 11 12 13 10
20 21 20 20 21 20 20 21 20 20 20 20 11 9 8 7 6 7 6 6 7 8 6 11 15 15 13 10 13 12 10 7 8 5 6 8 2 7 1 4 3 1 3 3 4 4 5 4 4 6 6 8 11 9 9 11 9 11 10 12 13 11 8 4 3 3 4 5 4 5 4 1 1 2 1 5 5 5 4 5 8 3 7 10 12 11 11
19 20 20 20 20 21 21 20 21 20 20 20 13 11 8 8 5 5 7 5 5 9 17 17 13 12 10 11 13 12 9 3 8 5 4 6 9 4 8 4 4 4 3 1 6 4 4 4 7 6 7 8 9 6 11 9 11 11 14 14 14 11 5 3 4 5 5 3 4 4 0 1 4 2 1 1 5 1 5 9 7 2 6 8 8 9 7
19 19 20 20 19 20 21 20 20 20 20 19 13 11 10 5 1 6 6 7 8 7 8 8 15 10 10 10 10 11 9 5 6 3 2 3 3 8 3 4 5 7 6 2 3 3 4 4 6 5 5 8 5 8 8 10 10 9 13 11 10 7 4 5 5 6 5 7 5 3 1 2 7 5 4 2 2 6 7 8 1 7 7 5 9 11 6
19 19 20 20 20 21 20 20 20 20 21 20 14 12 7 9 9 5 6 7 6 7 14 18 13 10 9 9 8 9 7 9 8 5 7 2 3 9 5 4 4 2 6 3 5 3 4 4 3 0 5 7 7 5 8 6 6 9 11 11 11 8 5 5 6 6 6 5 5 4 4 5 7 6 5 6 5 5 6 4 4 4 7 6 9 8 8
19 20 19 20 20 21 21 20 20 20 20 21 14 10 12 14 8 4 5 6 5 12 17 16 10 10 11 12 11 10 10 9 8 8 8 7 10 12 3 4 6 6 3 5 2 0 3 1 2 2 1 6 2 2 6 3 8 11 10 9 6 6 5 7 7 4 4 4 4 5 4 3 6 9 7 1 2 2 3 1 6 5 6 8 10 14 8
18 19 20 20 20 20 21 20 20 20 20 20 17 11 12 9 7 2 5 5 8 11 10 8 8 15 14 13 14 13 11 10 10 10 8 8 9 7 2 1 5 4 2 3 3 3 3 1 4 2 3 3 3 3 3 4 2 7 14 11 8 11 6 5 5 4 4 5 5 0 4 9 6 4 2 4 7 4 2 2 6 8 6 6 7 8 11
19 19 20 20 20 21 20 21 21 20 20 20 19 10 10 9 9 7 6 6 7 8 9 16 16 16 20 16 14 13 11 10 10 7 7 6 6 3 2 1 3 2 1 1 2 1 1 2 2 1 2 3 3 2 5 5 5 6 6 4 8 11 3 4 1 1 2 2 5 6 6 8 7 7 9 8 8 5 4 6 5 5 7 6 7 8 10
19 19 19 20 20 20 20 20 20 20 20 20 16 9 10 12 11 10 9 9 8 11 13 15 15 15 17 17 17 14 11 7 6 5 5 6 3 3 2 4 4 5 3 2 2 2 1 4 1 3 4 3 0 1 5 5 3 7 4 2 5 3 8 4 4 7 11 8 6 9 8 7 8 8 8 8 6 6 6 6 6 6 6 5 5 5 4
18 19 20 20 20 21 21 21 21 20 21 20 15 11 11 10 13 11 8 8 8 10 10 7 8 4 6 9 0 8 8 7 4 2 2 2 3 4 5 6 7 1 1 3 2 1 1 2 6 3 2 2 2 2 1 3 3 5 4 4 4 5 5 5 5 3 2 4 3 8 8 9 8 8 8 8 7 7 5 7 6 5 6 6 5 3 4
19 18 19 20 20 21 21 21 21 21 21 22 18 11 11 11 9 7 8 6 5 4 5 7 9 9 9 7 6 3 2 4 1 5 3 4 3 5 7 9 7 5 7 7 4 5 3 4 5 0 1 4 5 3 3 3 3 5 2 1 0 4 3 1 3 2 2 4 6 5 7 7 8 6 6 8 8 8 7 6 6 5 6 6 6 4 4
19 19 19 20 20 21 21 22 21 21 21 23 20 12 10 10 10 10 7 6 7 6 6 6 9 14 10 11 7 7 2 3 6 5 3 4 6 4 7 7 7 5 7 7 6 3 4 3 4 1 2 3 5 3 2 4 3 4 2 5 4 6 6 1 5 5 5 8 6 4 5 5 9 8 8 6 6 6 6 7 6 5 6 5 4 4 3
19 20 20 20 21 21 22 21 21 21 21 22 15 12 10 10 10 7 6 5 9 3 3 6 9 13 12 16 13 14 2 0 2 4 2 3 6 5 5 6 6 6 5 4 2 3 1 3 2 1 1 2 1 2 2 3 4 3 3 7 9 4 4 8 4 6 2 3 3 5 3 3 4 5 2 4 5 5 6 4 8 6 3 3 4 4 3
20 20 21 21 21 21 21 21 21 21 21 22 16 12 11 9 8 4 2 3 5 4 9 10 10 12 17 19 15 10 6 5 5 5 3 2 3 2 6 6 6 5 5 5 2 2 3 3 5 2 1 4 4 1 8 6 3 4 6 6 5 6 6 6 4 3 2 3 2 4 7 6 6 6 4 6 4 0 2 6 5 5 3 5 5 3 3
20 20 21 21 22 22 21 21 21 21 22 20 13 12 11 11 6 2 2 0 3 7 8 10 12 11 6 7 7 6 7 1 1 4 3 2 3 3 4 3 5 6 4 4 3 2 3 3 2 4 2 3 1 2 5 2 3 4 2 1 5 7 4 7 7 9 10 4 1 2 1 3 5 6 6 6 6 4 1 5 5 3 2 1 3 7 6
21 21 22 22 22 22 21 20 21 20 20 13 10 8 4 4 1 3 4 2 3 4 4 6 6 3 9 9 4 8 2 5 3 2 3 2 3 5 4 5 4 5 4 3 4 3 3 2 1 4 3 4 4 3 3 3 4 1 0 3 5 6 7 6 6 6 6 5 3 4 4 5 4 5 6 5 4 6 8 8 7 7 7 3 1 2 3
22 22 23 23 22 21 21 22 21 19 18 9 7 3 3 1 3 4 5 3 4 5 4 4 8 7 6 7 6 5 7 4 4 5 3 2 2 4 4 4 2 5 3 2 2 2 1 3 3 2 2 6 3 2 2 2 2 2 3 2 5 5 5 6 4 5 4 4 4 4 5 4 4 5 6 6 6 5 5 6 6 7 8 9 4 5 3
23 24 24 23 22 21 22 22 20 17 10 8 7 5 3 4 4 6 8 7 5 6 4 6 5 4 4 3 2 3 5 4 4 4 4 3 1 3 2 3 3 3 2 2 2 0 3 1 1 3 4 4 2 3 1 5 4 3 4 4 4 3 4 3 5 5 2 4 1 6 5 5 5 5 5 5 4 3 5 3 3 3 2 2 7 1 6
23 24 24 23 24 24 22 22 21 13 10 13 20 25 25 25 25 19 10 7 6 5 5 5 6 4 3 5 3 4 3 4 4 5 2 2 2 1 0 3 1 2 4 3 0 3 0 0 2 1 5 2 1 3 4 3 3 5 5 5 5 4 5 4 4 4 4 4 5 7 5 5 5 4 3 3 6 6 4 8 4 2 5 3 5 7 3
24 24 24 25 24 24 23 22 21 20 17 9 7 4 1 2 4 9 7 4 6 6 3 3 3 4 6 5 5 2 4 7 2 3 2 2 3 3 1 1 3 1 1 4 2 1 1 1 2 3 1 1 2 1 4 4 2 4 5 6 5 5 5 5 6 6 5 5 5 6 5 4 1 3 3 2 2 3 2 4 3 3 6 5 3 6 5
24 25 25 26 26 24 25 23 12 6 5 6 7 2 2 3 4 3 6 4 5 2 3 4 3 6 7 5 3 3 5 6 4 4 3 3 1 6 0 2 1 1 2 4 2 2 1 2 4 2 1 1 0 4 3 5 5 3 4 6 6 5 6 6 7 6 6 4 3 4 3 3 1 3 6 4 1 4 5 5 7 9 4 3 6 5 4
26 26 26 25 27 22 13 9 7 5 6 4 1 4 1 3 5 6 6 6 5 5 3 3 3 5 5 6 4 2 3 5 4 5 4 2 3 0 4 3 1 2 1 0 3 2 1 4 1 1 2 1 5 3 3 3 4 5 6 5 5 4 5 4 4 6 4 3 5 2 3 2 6 4 1 3 7 7 7 6 6 9 9 8 8 6 5
27 26 27 25 14 5 6 3 4 3 3 3 6 6 6 5 5 6 4 4 5 5 5 3 4 6 8 5 2 2 5 3 2 2 4 2 3 1 3 3 2 1 1 1 1 2 3 1 2 2 4 5 3 6 4 4 3 6 4 5 3 3 3 4 3 3 4 4 0 0 2 3 4 5 4 6 6 5 6 6 8 8 10 10 8 7 7
27 27 12 7 6 4 3 1 2 4 7 8 5 3 4 4 2 3 3 3 5 6 3 5 5 7 5 7 5 6 6 3 5 1 3 2 2 2 0 2 2 2 0 2 3 3 1 1 2 3 3 5 5 5 5 4 5 5 4 2 4 3 4 3 4 7 3 5 4 5 3 3 3 5 6 7 5 5 5 5 6 6 6 5 6 6 6
22 10 7 5 4 1 2 3 0 4 6 5 4 2 2 2 2 2 2 3 2 4 4 5 6 6 4 5 4 3 4 4 6 5 2 3 2 2 1 0 1 1 0 2 3 2 2 2 2 5 3 5 4 4 1 4 3 2 5 3 3 3 2 4 6 3 5 6 5 5 4 6 8 6 5 4 4 2 4 5 5 5 4 5 5 4 3
5 6 4 5 2 4 7 2 2 6 4 3 2 2 3 2 3 3 2 3 3 3 3 4 4 5 3 5 5 0 3 6 4 4 2 3 1 2 1 1 2 2 2 2 2 3 3 1 2 2 5 4 5 4 3 1 3 5 5 5 3 4 2 4 4 2 2 6 4 5 5 7 7 6 7 5 3 3 4 5 5 4 5 4 4 4 3
7 6 5 4 7 7 6 10 8 4 2 2 2 2 1 3 3 2 2 3 3 2 2 6 3 4 3 5 5 3 4 2 4 2 3 2 1 3 2 1 1 2 0 2 1 1 2 3 3 4 3 5 5 5 5 3 3 3 3 4 4 3 2 4 4 3 5 3 5 7 7 6 5 4 5 3 3 4 5 5 5 4 4 4 3 4 3
8 8 7 10 10 10 9 5 3 2 2 2 2 3 2 2 1 3 3 3 3 3 6 5 4 4 2 3 3 5 1 4 3 1 3 1 1 2 0 1 1 1 1 1 1 2 1 1 1 3 3 5 4 4 4 5 6 4 4 3 4 2 4 3 3 4 6 3 4 6 7 6 4 3 4 4 4 6 6 4 5 5 5 5 4 3 2
21 18 10 7 4 3 2 2 3 1 2 2 2 2 2 3 3 5 3 3 1 3 1 2 4 4 3 3 5 3 3 2 2 2 2 1 0 1 2 0 1 0 2 1 2 1 1 2 1 3 4 6 4 3 2 5 5 5 5 2 5 1 2 4 2 5 2 3 4 4 3 4 5 5 2 3 3 5 6 4 4 4 4 4 5 4 4
11 8 5 2 2 3 2 3 2 2 3 2 3 4 3 4 4 3 3 4 4 5 0 3 2 2 2 2 6 0 2 3 1 2 0 1 1 1 0 1 1 3 1 1 1 1 2 1 3 6 6 5 3 2 2 5 5 5 5 4 4 5 3 2 5 4 0 3 4 4 3 3 3 4 3 3 3 4 5 6 5 4 5 4 4 5 4
5 1 2 2 2 2 2 2 2 3 4 4 3 5 4 5 4 5 3 3 3 2 4 2 4 3 5 2 2 2 2 1 2 1 0 0 2 0 1 2 1 2 2 2 1 3 1 3 8 8 6 6 5 2 2 4 5 5 5 4 4 2 2 1 3 1 2 2 4 2 3 3 3 4 4 3 3 4 5 5 5 4 4 5 5 4 4
2 2 2 3 2 2 2 2 2 3 3 3 5 7 6 6 4 4 1 5 6 1 4 4 3 3 7 1 2 2 1 2 3 0 1 1 1 0 1 0 1 1 3 2 2 1 3 3 6 9 7 6 5 4 3 4 5 6 5 3 4 3 3 2 2 0 1 2 4 1 4 3 3 2 3 4 3 2 5 6 5 4 4 5 5 5 4
4 2 2 2 4 2 3 4 4 4 3 6 7 7 7 5 3 3 3 4 6 1 3 1 5 4 5 3 2 3 3 1 2 1 1 1 1 1 1 2 1 1 1 2 1 1 3 5 7 8 7 5 3 2 3 5 5 5 3 3 4 4 4 3 3 2 1 1 3 3 3 4 4 3 2 3 3 3 2 3 5 5 5 6 5 5 4
3 2 3 3 3 2 6 5 6 6 5 4 4 5 5 3 3 5 3 3 3 2 4 2 5 4 6 3 3 4 4 1 0 1 0 1 1 0 1 1 2 1 2 3 3 1 5 5 6 6 6 4 3 2 3 4 5 4 2 4 3 4 3 3 2 3 1 1 2 3 4 3 2 4 4 3 3 2 2 2 3 5 7 6 4 5 5
2 2 3 2 2 3 4 7 8 8 4 4 4 5 6 6 4 3 0 4 5 5 2 4 2 2 4 1 3 3 4 2 2 2 1 2 0 1 1 1 2 2 2 4 3 4 5 6 6 5 5 4 3 2 4 4 5 5 3 5 4 3 2 4 4 1 1 1 3 3 3 3 2 2 4 4 3 4 3 2 2 3 4 5 5 4 4
2 3 3 4 4 5 6 5 4 4 4 3 3 4 4 8 6 1 3 4 4 4 3 4 2 3 3 3 3 2 3 1 2 1 2 1 2 2 1 3 2 3 3 1 5 3 5 5 6 6 5 4 3 4 4 4 2 1 5 5 4 3 3 4 4 3 2 3 2 3 4 3 3 1 2 4 4 4 3 2 2 2 4 4 4 4 5
2 3 4 6 7 6 5 5 3 4 3 4 4 4 5 6 5 0 4 5 5 4 3 3 3 3 2 1 2 2 2 1 4 4 2 2 2 3 3 3 4 2 4 4 4 3 5 7 5 5 5 4 3 3 4 4 2 4 5 4 4 4 4 4 2 2 3 4 3 1 2 4 3 2 2 3 3 5 5 3 3 3 4 4 4 4 6
3 4 5 6 9 9 8 7 3 3 3 4 3 1 0 3 3 4 4 5 5 4 3 3 3 3 2 3 2 3 1 1 3 1 3 3 3 3 3 3 2 4 1 1 6 2 5 5 5 5 5 4 3 4 4 4 3 4 4 5 4 4 4 4 3 2 2 4 5 4 3 3 3 3 2 3 3 2 3 3 4 3 2 3 4 4 4
Wind_Direction
340 341 342 341 343 345 345 345 344 343 340 344 344 324 305 310 317 126 186 180 208 241 269 267 264 259 269 285 279 292 289 287 290 291 289 298 269 256 238 263 283 250 251 259 238 190 180 186 194 168 180 173 188 170 197 198 183 192 189 194 174 129 160 168 188 197 185 191 192 205 223 196 202 210 225 201 202 217 209 209 205 213 207 200 196 217 196
341 342 341 339 341 345 346 345 343 342 345 342 328 314 307 312 302 262 169 177 224 259 268 285 288 292 293 297 292 297 298 292 289 277 283 269 285 306 288 286 239 266 252 260 234 183 185 190 196 175 182 170 191 175 200 196 185 191 152 202 153 196 174 180 178 179 171 188 187 196 214 212 209 204 209 224 215 188 207 204 217 219 219 225 194 209 156
343 342 340 340 344 344 344 346 342 341 338 340 331 304 314 296 268 254 244 188 217 238 256 282 294 296 304 309 304 302 298 285 282 297 285 270 258 252 260 245 279 261 251 264 242 200 203 166 205 192 169 166 187 172 197 182 179 203 158 198 139 224 164 181 182 184 178 187 189 187 191 201 196 213 193 217 235 192 179 211 202 227 208 233 247 155 71
342 340 341 343 345 342 343 345 342 338 336 337 336 310 303 317 306 91 243 214 221 251 263 274 265 279 296 301 291 299 294 302 306 268 272 256 245 236 263 288 271 269 271 279 243 189 180 162 200 182 164 174 178 174 184 179 185 192 154 185 156 192 175 201 200 195 194 201 190 179 187 188 207 198 194 202 232 212 198 205 222 211 194 226 233 192 168
343 341 341 343 344 343 343 345 342 338 336 339 327 285 248 287 276 357 310 294 225 248 240 243 234 258 327 288 0 308 290 293 296 211 248 202 236 246 248 268 282 260 267 236 174 190 151 174 204 154 169 188 164 170 178 183 180 149 154 198 176 201 188 199 205 201 193 203 186 172 190 195 207 205 192 204 218 221 192 193 220 233 202 207 226 142 132
342 342 342 344 343 347 347 344 343 341 338 336 326 304 300 307 47 315 261 296 287 296 256 228 269 268 271 269 326 272 295 293 281 253 232 282 267 272 300 248 245 245 269 164 198 176 149 188 164 162 169 179 151 167 173 184 123 142 168 178 197 181 229 256 248 222 190 191 192 175 185 200 200 209 193 204 209 224 215 162 213 225 248 237 184 159 164
344 345 346 345 347 349 348 346 347 343 340 332 306 341 339 298 317 284 344 298 264 225 262 280 273 276 240 265 230 273 277 283 258 280 310 206 215 203 273 248 235 227 219 170 196 148 159 180 179 169 169 159 158 168 175 168 141 168 172 168 175 207 214 236 222 209 207 202 187 167 190 196 197 204 200 201 206 211 225 213 198 215 229 260 284 204 223
346 346 347 347 348 350 348 347 349 346 342 328 358 21 337 351 337 316 319 267 277 281 263 230 239 250 273 236 233 220 280 275 292 236 236 206 192 200 247 250 214 203 201 198 178 159 196 165 166 162 169 142 165 174 188 150 176 179 180 167 152 250 219 216 181 222 222 314 119 179 194 197 208 199 207 202 203 204 214 229 213 203 237 233 236 287 306
346 347 348 349 349 349 348 349 352 351 342 347 358 332 11 314 286 302 311 312 294 300 292 263 180 215 199 238 268 235 245 269 265 293 229 274 297 191 241 234 204 254 346 18 22 13 350 324 166 178 183 165 168 171 185 160 171 177 167 186 157 216 274 199 190 211 191 261 242 303 246 188 201 199 208 204 201 205 201 210 196 203 219 232 217 215 215
346 348 348 349 350 348 349 351 354 354 342 350 342 326 335 309 318 319 308 295 293 298 294 320 331 178 190 191 238 219 263 251 262 255 216 227 262 308 293 313 291 236 240 28 16 339 323 319 323 217 167 170 169 189 189 168 171 173 157 175 197 190 252 202 177 208 217 223 251 289 212 184 196 203 196 204 205 217 193 198 201 199 213 223 211 226 118
347 347 347 347 347 348 350 351 353 356 353 357 343 321 323 334 328 332 313 298 301 322 324 334 344 356 14 80 206 241 277 283 259 266 358 327 312 345 57 268 260 216 219 182 356 315 306 315 310 252 155 172 176 185 183 168 176 181 168 160 216 182 234 212 173 210 174 184 230 310 336 197 181 347 235 211 208 200 208 191 196 181 196 218 209 237 119
345 345 346 346 347 349 350 351 351 353 354 343 331 310 314 314 315 321 322 317 302 315 339 338 341 358 359 4 43 344 356 314 329 335 300 263 258 148 312 306 301 246 4 325 289 308 311 280 275 172 175 162 174 182 184 169 167 189 176 176 204 186 214 243 155 205 147 172 179 268 242 199 35 333 13 295 209 202 220 202 193 197 191 221 228 230 145
343 343 345 347 347 347 349 347 348 351 352 344 334 318 321 317 313 330 320 313 300 329 334 325 333 350 353 351 49 86 2 360 343 299 275 269 231 149 150 278 287 162 271 268 255 293 301 241 216 173 149 158 172 173 168 164 169 186 194 190 194 183 211 236 157 196 113 148 161 195 228 356 297 352 291 16 339 226 184 210 200 202 200 199 235 227 204
343 344 344 345 345 346 346 346 347 349 350 347 331 324 322 326 335 339 339 321 309 310 315 311 347 348 347 336 10 6 45 26 20 357 305 6 317 193 169 190 206 324 231 154 236 230 238 188 122 140 152 172 156 163 171 167 172 186 193 188 189 185 210 232 187 177 147 174 181 190 38 293 335 272 266 343 206 220 243 195 202 196 199 202 213 222 234
342 340 341 344 346 346 346 344 346 347 347 347 326 320 324 328 329 321 318 298 301 306 301 355 340 341 332 341 7 359 24 15 18 350 298 285 257 343 104 193 316 297 116 216 173 214 167 189 147 168 161 172 162 159 172 177 178 173 164 186 201 182 218 184 223 153 156 175 190 167 193 216 217 67 360 352 342 272 233 278 266 189 200 207 205 216 232
341 341 341 344 345 344 344 344 344 346 346 347 335 329 319 320 311 303 309 317 307 310 343 338 323 333 327 350 357 1 354 358 4 335 328 343 325 274 176 126 137 198 190 223 244 206 167 180 152 153 161 159 153 161 176 154 168 163 179 193 193 198 238 156 256 200 179 201 218 196 203 205 33 125 40 349 14 300 167 207 240 215 259 196 203 207 222
338 340 341 343 343 342 342 343 343 345 346 348 339 327 316 319 306 322 322 294 290 273 283 292 323 329 335 353 350 357 3 332 334 6 344 346 327 298 114 105 148 199 121 333 225 205 176 171 173 154 156 174 160 171 153 169 172 172 179 198 188 182 192 236 236 231 207 206 224 223 57 140 217 171 254 274 235 259 158 202 211 143 241 231 226 231 225
336 339 340 340 341 342 342 342 342 343 345 345 338 326 307 326 187 302 310 311 312 291 267 317 339 331 349 353 327 334 333 334 346 317 260 172 291 347 21 122 142 64 2 241 234 204 183 179 174 172 159 167 162 172 176 168 173 171 173 177 189 185 188 213 227 207 171 188 235 123 137 108 147 153 141 80 141 179 188 204 91 348 349 333 247 224 216
336 337 338 338 338 340 340 340 341 342 343 346 339 321 313 322 315 301 299 309 310 284 295 312 304 294 309 315 306 317 335 335 342 341 348 359 39 334 20 77 6 13 29 360 341 284 191 180 93 288 175 151 171 188 143 173 170 172 170 191 188 182 188 188 231 215 210 200 232 225 87 128 125 135 129 136 148 160 195 46 295 319 356 360 346 248 139
335 335 335 335 336 337 338 338 340 341 342 345 343 321 304 293 275 259 293 305 303 291 292 288 278 313 330 321 323 327 336 335 356 344 355 352 358 357 30 24 27 5 29 12 293 184 332 356 110 173 238 148 144 323 179 138 176 185 181 188 195 178 203 187 202 217 236 219 213 222 176 185 188 132 120 116 240 84 359 339 50 17 23 2 33 10 91
332 334 333 333 333 335 336 337 338 339 340 342 343 323 312 309 340 267 210 263 296 306 296 295 347 318 304 301 298 301 309 321 335 343 340 325 4 357 41 346 340 12 8 347 341 17 6 350 15 21 25 352 301 297 172 132 171 205 181 175 203 154 208 189 208 211 223 209 221 232 63 135 147 159 95 85 71 102 104 31 56 34 24 34 45 61 31
329 331 332 331 331 332 334 334 335 335 338 339 338 318 302 318 319 309 325 309 285 265 268 291 293 283 277 273 271 272 281 292 311 328 324 322 346 81 221 209 251 313 276 314 289 104 42 339 286 297 81 261 325 257 170 168 177 155 37 178 200 152 180 33 1 160 274 28 83 65 50 79 62 81 102 96 97 85 84 73 66 52 51 36 72 79 137
327 328 329 328 328 329 331 331 331 332 333 337 335 321 310 307 301 317 310 287 274 267 266 266 271 269 268 263 251 252 254 281 305 302 298 306 315 197 145 61 44 89 292 311 51 146 320 325 314 346 32 308 183 315 212 196 172 172 174 162 75 66 113 164 101 86 99 86 84 111 106 85 86 86 94 100 86 91 71 73 71 71 61 61 75 89 107
324 327 327 327 326 327 328 328 328 330 331 332 333 314 305 298 291 288 289 302 319 314 299 269 272 304 330 17 11 193 228 234 248 342 347 309 313 339 3 40 358 171 179 31 157 112 126 43 307 44 77 334 138 302 105 39 292 323 226 153 152 87 77 117 103 114 219 111 175 112 113 117 104 99 94 85 84 74 84 88 84 75 87 78 87 115 65
322 323 325 325 325 325 325 326 327 327 328 328 327 306 289 285 286 319 328 326 321 330 310 310 301 333 343 352 332 88 99 355 173 203 189 204 258 318 337 341 327 313 304 300 272 254 217 194 159 163 186 255 294 120 64 167 260 300 241 123 170 161 68 317 155 130 46 95 78 76 94 115 106 112 113 104 102 92 82 85 75 78 89 106 96 69 119
320 321 322 322 323 323 322 322 324 324 324 325 322 310 304 292 292 289 294 280 275 265 284 295 301 316 326 334 336 309 124 25 14 341 303 289 279 283 297 306 305 268 258 259 261 280 311 21 71 68 40 50 2 56 22 12 121 116 41 78 26 332 290 250 202 123 91 131 117 65 59 81 70 69 63 68 80 96 98 92 86 64 65 84 104 102 133
318 320 320 320 320 321 320 320 321 323 322 322 319 300 289 283 278 279 312 336 323 294 255 284 315 312 325 326 304 290 119 58 78 318 280 318 345 3 323 312 325 323 342 329 303 316 358 42 65 98 207 54 72 148 42 3 21 60 38 24 357 9 36 332 297 105 76 56 8 292 185 126 104 85 49 66 67 65 100 96 108 109 102 76 110 137 119
316 318 318 317 318 318 319 318 320 321 322 320 309 294 276 268 261 275 308 285 309 295 300 297 300 303 316 279 281 290 69 11 17 313 344 356 335 5 311 342 343 356 349 332 16 37 19 29 30 339 29 54 26 329 142 186 100 62 56 47 41 53 36 22 22 78 104 175 219 61 87 77 77 90 62 43 49 5 130 133 121 94 111 136 123 96 152
315 314 315 315 315 316 316 317 318 320 322 320 305 296 269 237 236 166 210 315 270 292 294 286 278 272 289 11 309 300 102 193 156 343 344 306 284 311 273 1 357 357 348 339 335 1 49 72 11 31 26 12 256 256 267 151 112 72 78 22 81 88 47 51 81 92 87 87 329 307 346 111 105 98 91 74 26 8 107 75 66 96 118 84 147 169 157
313 314 312 313 312 312 313 313 315 316 322 316 305 289 284 123 354 63 40 357 326 325 303 315 313 303 332 302 344 318 302 87 28 297 301 346 347 313 357 358 356 348 328 349 339 28 15 56 67 74 56 70 332 345 34 49 65 210 106 74 90 120 93 61 49 70 105 120 123 95 112 106 128 129 103 94 70 41 41 47 36 22 5 37 343 41 90
311 312 311 310 310 310 310 311 311 315 315 306 306 284 303 301 101 76 45 343 314 293 293 273 274 289 290 256 266 331 345 40 16 28 347 314 279 333 16 291 71 345 357 347 18 50 347 43 347 87 106 52 341 57 56 83 110 290 45 66 62 81 105 123 111 72 85 115 119 136 94 67 37 101 71 57 62 29 43 58 34 10 355 336 2 2 65
310 309 309 308 307 308 305 304 305 308 300 282 263 289 341 324 343 347 329 291 280 261 258 287 293 290 296 225 159 313 271 21 255 201 246 321 62 360 312 354 29 9 7 339 314 250 50 352 13 17 23 15 309 95 103 68 76 89 91 87 86 78 82 105 115 126 155 59 5 126 88 89 54 57 75 23 52 49 38 33 72 41 323 326 317 205 60
309 308 307 306 305 303 303 298 296 297 286 284 290 289 279 268 264 266 264 256 248 264 263 283 284 304 282 346 303 198 308 224 245 252 198 306 59 229 110 283 197 194 101 262 312 34 338 280 256 237 64 254 336 81 63 73 81 94 85 79 69 70 80 80 93 86 78 82 75 91 85 84 86 73 36 59 44 20 3 333 10 334 293 255 43 30 48
307 307 304 303 302 301 297 296 292 287 275 261 271 225 164 104 198 209 255 264 276 273 259 273 285 278 278 281 276 96 279 304 272 208 127 65 35 249 164 323 97 333 38 318 56 220 149 309 326 42 247 103 332 107 87 101 105 91 84 87 100 113 111 104 91 80 66 52 51 69 74 65 61 129 168 26 40 68 331 272 300 286 264 265 84 72 52
307 304 303 301 299 297 294 289 290 245 238 234 233 105 98 205 300 206 207 260 290 256 241 248 242 281 292 271 230 77 334 309 18 31 346 77 265 301 127 172 187 293 83 329 280 311 21 52 14 270 73 11 197 65 68 93 103 95 89 92 89 105 116 103 72 62 63 68 120 131 146 168 185 38 25 29 33 5 359 348 354 324 311 3 80 82 86
304 303 301 299 297 293 286 255 221 241 231 249 53 113 148 241 217 220 223 244 261 298 291 287 300 293 302 315 2 52 315 265 244 213 106 243 182 33 290 291 91 31 283 240 312 105 63 55 307 137 182 160 60 45 75 64 65 62 86 83 80 73 82 83 106 90 77 64 46 61 68 37 67 37 297 57 38 23 16 350 14 8 22 23 39 39 48
302 300 300 297 286 232 240 236 200 259 355 354 316 321 293 272 231 232 214 231 218 232 279 302 289 284 305 329 311 40 335 322 4 265 83 355 41 35 304 274 106 70 241 212 34 6 39 41 295 13 41 52 48 52 24 23 107 134 126 104 89 94 111 84 63 106 98 61 306 149 70 94 108 100 69 37 30 17 17 26 19 21 24 20 17 24 36
301 299 295 279 255 250 248 129 34 314 311 268 262 249 184 197 229 204 192 228 171 169 225 235 255 273 289 298 303 22 313 319 287 316 89 28 248 166 354 356 64 284 79 65 53 6 60 258 277 84 86 54 72 37 39 55 51 54 90 112 106 100 85 134 54 18 9 150 92 62 52 55 79 59 36 51 41 24 30 22 15 11 5 9 22 12 17
295 279 256 243 251 294 14 40 189 220 255 255 234 277 232 190 251 244 205 191 155 225 216 236 261 266 281 281 294 4 340 325 307 278 97 88 335 50 284 262 104 294 233 163 119 233 243 204 169 131 109 124 97 66 38 66 85 85 80 68 90 107 102 68 29 21 32 63 58 59 43 36 20 34 68 68 62 57 51 48 48 42 33 19 12 13 349
328 327 331 308 332 15 307 77 131 285 256 264 204 243 274 235 248 257 208 219 211 233 203 237 244 276 256 283 310 291 46 316 332 356 12 97 37 342 40 322 87 277 270 95 100 185 272 148 233 129 99 102 96 100 102 176 116 96 113 111 132 110 86 81 106 68 25 75 77 80 60 57 43 28 46 62 55 40 59 71 57 46 44 42 3 3 41
346 333 317 336 344 321 317 314 301 257 246 240 238 224 253 266 232 281 295 252 259 255 181 274 250 257 289 285 276 295 119 264 311 325 317 38 35 288 287 42 23 282 323 71 102 252 270 8 31 62 77 77 101 130 132 124 121 118 109 126 116 120 124 100 64 34 341 16 72 49 40 44 63 59 55 46 46 47 57 66 72 68 66 69 72 55 27
327 305 300 299 291 279 280 260 243 249 245 244 242 238 230 261 252 229 232 261 225 231 189 202 241 267 263 297 304 302 71 64 306 306 288 85 71 305 332 129 205 293 48 76 190 249 277 85 104 91 94 84 83 119 138 141 127 159 124 123 118 151 141 113 74 36 35 11 53 55 42 40 54 56 55 53 51 62 60 70 88 93 82 76 79 96 79
291 279 261 278 284 270 224 256 194 226 215 188 214 280 228 232 225 239 209 202 326 302 72 359 316 320 263 263 244 198 330 19 297 264 276 58 124 246 329 88 245 222 74 149 245 260 100 118 95 82 91 84 48 43 109 119 122 121 131 134 116 68 46 98 60 72 43 27 60 64 81 85 59 62 34 45 66 90 98 77 62 79 99 89 76 79 97
274 257 224 224 256 262 220 247 193 196 232 213 178 219 209 244 225 192 244 229 172 245 327 301 236 273 300 132 302 135 186 199 231 255 37 119 239 112 256 241 49 60 288 247 256 120 65 8 354 63 48 49 78 53 89 123 124 127 128 166 170 146 154 164 129 112 35 55 74 114 139 100 101 84 68 63 43 77 87 84 66 70 88 103 99 89 92
291 272 235 267 252 221 133 300 186 207 219 223 221 231 212 225 238 232 274 343 200 229 85 253 285 259 274 89 262 239 281 98 138 240 131 244 299 353 306 61 103 229 234 236 100 97 184 133 94 71 41 32 19 44 114 129 133 143 129 139 126 114 121 122 103 152 192 165 116 90 82 100 83 75 77 90 74 56 83 106 99 86 89 100 106 104 95
280 290 265 230 263 264 222 233 180 222 233 235 225 240 250 245 258 315 27 267 282 188 224 240 286 282 286 287 283 319 257 279 273 352 25 240 161 147 33 33 279 280 271 185 134 166 90 75 62 55 35 29 22 35 105 132 121 114 122 162 134 122 109 111 134 285 300 135 125 95 65 51 73 74 92 69 61 56 72 88 103 86 85 94 105 119 120
255 250 257 283 278 234 212 247 215 223 236 218 230 238 244 272 303 293 354 333 282 348 360 287 258 292 299 306 272 231 236 250 277 74 274 282 88 102 300 265 239 238 73 59 102 109 105 63 59 55 41 25 51 93 140 129 131 131 175 143 99 118 130 143 107 96 19 276 155 147 108 80 85 103 99 95 78 64 72 96 102 116 107 93 92 101 116
296 284 259 244 235 229 215 230 255 245 221 264 298 288 292 284 225 259 258 281 308 318 265 305 278 212 226 203 228 276 297 241 241 125 32 2 80 310 122 269 237 185 195 189 189 89 83 73 66 55 46 45 70 101 105 122 121 136 168 109 123 132 132 137 127 104 121 236 160 160 134 130 111 95 91 90 100 106 105 93 91 98 108 107 106 113 114
292 307 283 249 243 245 227 217 226 241 246 231 240 293 286 267 246 215 315 279 267 242 243 266 294 348 281 261 259 243 239 150 165 178 136 238 132 122 206 222 245 212 222 286 65 67 76 83 75 66 55 51 83 134 112 119 137 190 136 110 132 140 139 122 114 108 159 153 172 158 148 126 104 94 109 110 111 92 79 77 106 109 112 112 114 108 111
269 235 243 264 280 273 272 276 272 269 255 232 214 246 279 282 259 95 6 295 310 287 261 240 251 272 287 290 242 219 281 210 255 182 162 206 186 205 196 236 207 208 205 202 73 76 89 109 110 93 76 73 64 93 129 119 203 252 101 118 127 147 149 130 129 215 208 150 181 155 161 177 186 136 76 92 97 110 110 107 126 122 108 110 112 115 111
228 254 252 253 257 280 315 285 254 242 239 250 236 243 257 288 291 103 26 315 303 287 262 258 219 223 249 234 285 244 218 246 229 222 220 207 184 216 205 227 230 221 77 69 41 36 69 59 50 84 103 91 78 91 113 145 172 89 110 130 139 133 114 121 148 211 237 150 135 135 201 196 174 177 129 109 112 122 125 127 118 114 110 119 123 118 119
240 233 247 235 239 254 263 275 300 293 302 294 273 188 178 275 334 344 343 297 280 270 259 240 242 229 230 253 228 267 310 326 282 237 217 234 204 194 201 226 29 54 18 72 76 58 72 75 68 53 59 73 85 101 111 130 197 115 106 109 110 109 138 160 170 202 233 157 163 190 197 184 176 182 168 137 125 144 134 115 101 93 119 114 104 108 113